User: anonymous   Login
Location: Coupvray
(48.8929°N, 2.7967°E)
Time: 13:48:58
(UTC+00:00)
Language:

Cosmos 841 Rocket - Orbit

View from above orbital plane
View from above orbital plane
View from above satellite
View from above satellite

Ground track
Ground track

The orbit data is extracted from the following two-line orbital elements,

1  9023U 76069B   20262.59909046 -.00000072 +00000-0 -14598-4 0  9998
2  9023 074.0408 061.3996 0018494 291.9988 067.9202 14.39659802315692
Epoch (UTC): 18 September 2020 14:22:41
Eccentricity: 0.0018494
inclination: 74.0408°
perigee height: 746 km
apogee height: 773 km
right ascension of ascending node: 61.3996°
argument of perigee: 291.9988°
revolutions per day: 14.39659802
mean anomaly at epoch: 67.9202°
orbit number at epoch: 31569

The dashed part of the orbit path shows where the satellite is in the earth's shadow,  

DLR